Location: Unspecified
(0.0000°N, 0.0000°E)
Time: 18:57:07
(UTC+00:00)

S-56A Canister/Altair - Pass Details

Date: 23 November 2019
Orbit: 633 x 2500 km, 38.9° (Epoch: 08 December)

Event Time Altitude Azimuth Distance (km) Brightness Sun altitude
Rises 00:12:10 0° 311° (NW) 2,922 - -68.8°
Reaches altitude 10° 00:14:24 10° 311° (NW) 1,998 - -68.6°
Maximum altitude 00:18:48 90° 38° (NE) 666 - -68.2°
Drops below altitude 10° 00:23:58 10° 131° (SE) 2,335 - -67.8°
Sets 00:26:46 0° 131° (SE) 3,468 - -67.5°
